DLH5T EDDM-EDDB

Flight info

Callsign DLH5T
Flight time 0h 43m
Altitude 29000
Route AKINI1N AKINI Y104 MAMOR L132 RUDNO T203 TIVDA DCT ETVIS DCT NAVEK DCT GAVLI/N0438F300 T203 ATGUP ATGUP1R
Aircraft A321/M-SDE3FGHIRWY/LB1

Departure

Time 2026-05-05 18:29
Airport Munich Airport (EDDM)

Arrival

Time 2026-05-05 19:12
Airport Berlin Brandenburg Airport (EDDB)
Time Latitude Longitude Altitude Speed Heading
2026-05-05 17:27 48.35365 11.79746 1475 ft 0 kts 83°
2026-05-05 18:11 48.35362 11.79712 1483 ft 4 kts 83°
2026-05-05 18:12 48.35359 11.79674 1475 ft 2 kts 83°
2026-05-05 18:12 48.35354 11.79641 1474 ft 4 kts 58°
2026-05-05 18:12 48.35337 11.79616 1475 ft 4 kts 15°
2026-05-05 18:12 48.35312 11.79615 1479 ft 4 kts 353°
2026-05-05 18:13 48.35301 11.79617 1476 ft 0 kts 353°
2026-05-05 18:15 48.35306 11.79616 1475 ft 2 kts 354°
2026-05-05 18:16 48.35331 11.79612 1477 ft 6 kts 355°
2026-05-05 18:16 48.35394 11.79601 1482 ft 11 kts 352°
2026-05-05 18:16 48.35477 11.79586 1473 ft 13 kts 353°
2026-05-05 18:16 48.35571 11.79570 1485 ft 14 kts 354°
2026-05-05 18:17 48.35675 11.79552 1485 ft 16 kts 353°
2026-05-05 18:17 48.35782 11.79534 1481 ft 14 kts 353°
2026-05-05 18:17 48.35878 11.79517 1483 ft 10 kts 354°
2026-05-05 18:17 48.35928 11.79508 1482 ft 4 kts 353°
2026-05-05 18:18 48.35939 11.79506 1485 ft 0 kts 353°
2026-05-05 18:19 48.35944 11.79505 1485 ft 3 kts 353°
2026-05-05 18:19 48.35991 11.79498 1484 ft 11 kts 353°
2026-05-05 18:20 48.36073 11.79483 1482 ft 13 kts 353°
2026-05-05 18:20 48.36134 11.79474 1481 ft 14 kts 354°
2026-05-05 18:20 48.36214 11.79513 1479 ft 10 kts 72°
2026-05-05 18:20 48.36226 11.79625 1482 ft 12 kts 83°
2026-05-05 18:21 48.36232 11.79710 1481 ft 13 kts 83°
2026-05-05 18:21 48.36247 11.79903 1485 ft 17 kts 84°
2026-05-05 18:21 48.36256 11.80029 1485 ft 19 kts 84°
2026-05-05 18:21 48.36271 11.80229 1485 ft 20 kts 83°
2026-05-05 18:22 48.36294 11.80511 1471 ft 21 kts 83°
2026-05-05 18:22 48.36312 11.80739 1485 ft 22 kts 83°
2026-05-05 18:22 48.36324 11.80899 1480 ft 23 kts 83°
2026-05-05 18:22 48.36343 11.81145 1482 ft 24 kts 83°
2026-05-05 18:23 48.36362 11.81402 1485 ft 25 kts 83°
2026-05-05 18:23 48.36383 11.81669 1478 ft 26 kts 83°
2026-05-05 18:23 48.36398 11.81869 1485 ft 12 kts 84°
2026-05-05 18:23 48.36399 11.81972 1485 ft 6 kts 69°
2026-05-05 18:24 48.36415 11.81997 1478 ft 4 kts 32°
2026-05-05 18:24 48.36444 11.82002 1485 ft 5 kts 356°
2026-05-05 18:24 48.36486 11.81996 1481 ft 7 kts 354°
2026-05-05 18:24 48.36498 11.81994 1485 ft 0 kts 354°
2026-05-05 18:26 48.36508 11.81993 1485 ft 3 kts 353°
2026-05-05 18:26 48.36544 11.81986 1497 ft 6 kts 353°
2026-05-05 18:26 48.36559 11.81983 1485 ft 0 kts 353°
2026-05-05 18:27 48.36569 11.81982 1478 ft 4 kts 353°
2026-05-05 18:27 48.36613 11.81973 1485 ft 8 kts 352°
2026-05-05 18:27 48.36664 11.81958 1474 ft 4 kts 338°
2026-05-05 18:28 48.36669 11.81855 1483 ft 8 kts 264°
2026-05-05 18:28 48.36652 11.81639 1474 ft 50 kts 263°
2026-05-05 18:28 48.36585 11.80745 1486 ft 119 kts 263°
2026-05-05 18:29 48.36471 11.79218 1520 ft 169 kts 265°
2026-05-05 18:29 48.36344 11.77449 2216 ft 169 kts 263°
2026-05-05 18:29 48.36203 11.75689 2935 ft 174 kts 266°
2026-05-05 18:29 48.36069 11.73790 3314 ft 190 kts 266°
2026-05-05 18:30 48.35912 11.71743 3740 ft 203 kts 265°
2026-05-05 18:30 48.35836 11.69543 4022 ft 221 kts 279°
2026-05-05 18:30 48.36414 11.67399 4712 ft 225 kts 304°
2026-05-05 18:30 48.37583 11.65814 5432 ft 232 kts 329°
2026-05-05 18:31 48.39159 11.65098 6078 ft 246 kts 346°
2026-05-05 18:31 48.40911 11.64568 6377 ft 268 kts 346°
2026-05-05 18:31 48.42785 11.63995 6911 ft 279 kts 346°
2026-05-05 18:31 48.44726 11.63605 7583 ft 286 kts 358°
2026-05-05 18:32 48.46720 11.64040 8277 ft 294 kts 15°
2026-05-05 18:32 48.48555 11.65367 8955 ft 301 kts 34°
2026-05-05 18:32 48.50113 11.67571 9614 ft 309 kts 52°
2026-05-05 18:32 48.51386 11.70208 10262 ft 313 kts 54°
2026-05-05 18:33 48.52787 11.72800 10569 ft 330 kts 41°
2026-05-05 18:33 48.54680 11.74846 10714 ft 350 kts 32°
2026-05-05 18:33 48.56755 11.76897 11121 ft 360 kts 32°
2026-05-05 18:33 48.58861 11.78961 11751 ft 363 kts 32°
2026-05-05 18:34 48.60996 11.81051 12378 ft 366 kts 32°
2026-05-05 18:34 48.63143 11.83161 13026 ft 370 kts 32°
2026-05-05 18:34 48.65302 11.85293 13667 ft 373 kts 32°
2026-05-05 18:34 48.67477 11.87447 14231 ft 376 kts 32°
2026-05-05 18:35 48.69677 11.89630 14798 ft 379 kts 33°
2026-05-05 18:35 48.71889 11.91826 15330 ft 383 kts 33°
2026-05-05 18:35 48.74121 11.94051 15875 ft 386 kts 33°
2026-05-05 18:35 48.76373 11.96298 16423 ft 389 kts 33°
2026-05-05 18:36 48.78640 11.98579 16966 ft 392 kts 34°
2026-05-05 18:36 48.80914 12.00886 17507 ft 395 kts 34°
2026-05-05 18:36 48.83201 12.03218 18033 ft 398 kts 34°
2026-05-05 18:36 48.85502 12.05569 18475 ft 401 kts 34°
2026-05-05 18:37 48.87823 12.07945 18925 ft 404 kts 34°
2026-05-05 18:37 48.90158 12.10333 19389 ft 406 kts 34°
2026-05-05 18:37 48.92512 12.12739 19860 ft 408 kts 34°
2026-05-05 18:37 48.94867 12.15146 20317 ft 410 kts 34°
2026-05-05 18:38 48.97248 12.17583 20734 ft 413 kts 35°
2026-05-05 18:38 48.99642 12.20038 21150 ft 416 kts 35°
2026-05-05 18:38 49.02046 12.22505 21586 ft 419 kts 35°
2026-05-05 18:38 49.04477 12.25005 22005 ft 422 kts 35°
2026-05-05 18:39 49.06917 12.27517 22420 ft 425 kts 35°
2026-05-05 18:39 49.09376 12.30051 22824 ft 428 kts 35°
2026-05-05 18:39 49.11853 12.32603 23260 ft 430 kts 35°
2026-05-05 18:39 49.14334 12.35164 23608 ft 433 kts 36°
2026-05-05 18:40 49.16831 12.37752 23957 ft 435 kts 36°
2026-05-05 18:40 49.19350 12.40367 24304 ft 438 kts 36°
2026-05-05 18:40 49.21873 12.42988 24645 ft 440 kts 36°
2026-05-05 18:40 49.24413 12.45626 24991 ft 442 kts 36°
2026-05-05 18:41 49.26965 12.48283 25333 ft 445 kts 36°
2026-05-05 18:41 49.29494 12.50918 25661 ft 447 kts 36°
2026-05-05 18:41 49.32098 12.53629 26067 ft 447 kts 36°
2026-05-05 18:41 49.34689 12.56324 26219 ft 454 kts 36°
2026-05-05 18:42 49.37322 12.59070 26337 ft 461 kts 36°
2026-05-05 18:42 49.39956 12.61825 26476 ft 468 kts 36°
2026-05-05 18:42 49.42668 12.64645 26604 ft 475 kts 34°
2026-05-05 18:42 49.45582 12.67121 26741 ft 482 kts 26°
2026-05-05 18:43 49.48619 12.69358 26973 ft 485 kts 26°
2026-05-05 18:43 49.51661 12.71590 27352 ft 484 kts 26°
2026-05-05 18:43 49.54703 12.73820 27750 ft 483 kts 26°
2026-05-05 18:43 49.57732 12.76050 28125 ft 483 kts 26°
2026-05-05 18:44 49.60761 12.78291 28399 ft 485 kts 26°
2026-05-05 18:44 49.63830 12.80486 28666 ft 486 kts 22°
2026-05-05 18:44 49.67055 12.82035 28773 ft 484 kts 14°
2026-05-05 18:44 49.70286 12.83343 28775 ft 479 kts 15°
2026-05-05 18:45 49.76702 12.86004 28787 ft 476 kts 14°
2026-05-05 18:45 49.83098 12.88661 28781 ft 476 kts 14°
2026-05-05 18:46 49.89485 12.91298 28770 ft 476 kts 14°
2026-05-05 18:46 49.95887 12.93931 28782 ft 476 kts 14°
2026-05-05 18:47 50.02305 12.96573 28765 ft 477 kts 14°
2026-05-05 18:47 50.08727 12.99228 28783 ft 478 kts 14°
2026-05-05 18:48 50.15159 13.01913 28785 ft 478 kts 14°
2026-05-05 18:48 50.21580 13.04608 28781 ft 479 kts 14°
2026-05-05 18:49 50.28018 13.07306 28757 ft 480 kts 14°
2026-05-05 18:49 50.34434 13.09989 28775 ft 481 kts 14°
2026-05-05 18:50 50.37623 13.11329 28769 ft 466 kts 14°
2026-05-05 18:50 50.40757 13.12649 28769 ft 471 kts 14°
2026-05-05 18:50 50.47213 13.15374 28776 ft 479 kts 14°
2026-05-05 18:51 50.53611 13.18094 28769 ft 480 kts 14°
2026-05-05 18:51 50.60062 13.20841 28788 ft 480 kts 14°
2026-05-05 18:52 50.66511 13.23584 28780 ft 480 kts 14°
2026-05-05 18:52 50.72973 13.26236 28799 ft 479 kts
2026-05-05 18:53 50.76287 13.26517 28780 ft 475 kts 355°
2026-05-05 18:53 50.79589 13.26284 28384 ft 476 kts 355°
2026-05-05 18:53 50.82899 13.26030 27957 ft 477 kts 355°
2026-05-05 18:53 50.86219 13.25765 27546 ft 478 kts 355°
2026-05-05 18:54 50.89553 13.25498 27134 ft 480 kts 355°
2026-05-05 18:54 50.92892 13.25233 26720 ft 482 kts 355°
2026-05-05 18:54 50.96242 13.24968 26309 ft 483 kts 355°
2026-05-05 18:54 50.99600 13.24703 25916 ft 484 kts 355°
2026-05-05 18:55 51.02966 13.24440 25516 ft 485 kts 355°
2026-05-05 18:55 51.06336 13.24174 25129 ft 485 kts 355°
2026-05-05 18:55 51.09704 13.23908 24746 ft 486 kts 355°
2026-05-05 18:55 51.13089 13.23648 24364 ft 487 kts 355°
2026-05-05 18:56 51.16465 13.23393 23995 ft 488 kts 355°
2026-05-05 18:56 51.19861 13.23131 23619 ft 488 kts 355°
2026-05-05 18:56 51.23259 13.22859 23231 ft 489 kts 355°
2026-05-05 18:56 51.26657 13.22582 22798 ft 488 kts 355°
2026-05-05 18:57 51.30031 13.22312 22371 ft 485 kts 355°
2026-05-05 18:57 51.33366 13.22051 21955 ft 481 kts 355°
2026-05-05 18:57 51.36699 13.21791 21532 ft 478 kts 355°
2026-05-05 18:57 51.40015 13.21530 21117 ft 475 kts 355°
2026-05-05 18:58 51.43304 13.21270 20716 ft 472 kts 355°
2026-05-05 18:58 51.46575 13.21013 20313 ft 469 kts 355°
2026-05-05 18:58 51.49822 13.20757 19919 ft 466 kts 355°
2026-05-05 18:58 51.53050 13.20498 19540 ft 463 kts 355°
2026-05-05 18:59 51.56252 13.20240 19126 ft 460 kts 355°
2026-05-05 18:59 51.59429 13.19978 18651 ft 456 kts 355°
2026-05-05 18:59 51.62522 13.19723 18194 ft 452 kts 355°
2026-05-05 18:59 51.65653 13.19467 17672 ft 449 kts 355°
2026-05-05 19:00 51.68755 13.19218 17123 ft 443 kts 356°
2026-05-05 19:00 51.71803 13.18972 16377 ft 435 kts 355°
2026-05-05 19:00 51.74802 13.18731 15659 ft 429 kts 355°
2026-05-05 19:00 51.77769 13.18494 14939 ft 424 kts 356°
2026-05-05 19:01 51.80701 13.18259 14247 ft 419 kts 355°
2026-05-05 19:01 51.83595 13.18035 13548 ft 414 kts 356°
2026-05-05 19:01 51.86446 13.17838 12789 ft 408 kts 356°
2026-05-05 19:01 51.89252 13.17641 12034 ft 395 kts 356°
2026-05-05 19:02 51.91945 13.17447 11302 ft 379 kts 356°
2026-05-05 19:02 51.94539 13.17253 10624 ft 369 kts 356°
2026-05-05 19:02 51.97089 13.17062 10211 ft 365 kts 356°
2026-05-05 19:02 51.99582 13.16874 9932 ft 348 kts 356°
2026-05-05 19:03 52.01931 13.16702 9800 ft 332 kts 356°
2026-05-05 19:03 52.04230 13.16545 9827 ft 329 kts 356°
2026-05-05 19:03 52.06514 13.16388 9825 ft 328 kts 356°
2026-05-05 19:03 52.08799 13.16228 9305 ft 330 kts 356°
2026-05-05 19:04 52.11103 13.16064 8597 ft 331 kts 356°
2026-05-05 19:04 52.13410 13.15867 7913 ft 332 kts 352°
2026-05-05 19:04 52.15594 13.14768 7243 ft 330 kts 330°
2026-05-05 19:04 52.17530 13.12765 6581 ft 330 kts 326°
2026-05-05 19:05 52.19422 13.10657 5905 ft 330 kts 325°
2026-05-05 19:05 52.21304 13.08526 5249 ft 325 kts 325°
2026-05-05 19:05 52.23085 13.06479 5025 ft 301 kts 326°
2026-05-05 19:05 52.24862 13.05019 4847 ft 277 kts 350°
2026-05-05 19:06 52.26709 13.05280 4673 ft 266 kts 25°
2026-05-05 19:06 52.28096 13.07175 4434 ft 262 kts 60°
2026-05-05 19:06 52.28537 13.09994 4150 ft 261 kts 94°
2026-05-05 19:06 52.28308 13.12909 3868 ft 257 kts 98°
2026-05-05 19:07 52.28050 13.15745 3599 ft 251 kts 98°
2026-05-05 19:07 52.27914 13.17612 3414 ft 242 kts 90°
2026-05-05 19:07 52.28350 13.21041 3131 ft 226 kts 70°
2026-05-05 19:07 52.28902 13.23341 3016 ft 210 kts 68°
2026-05-05 19:08 52.29422 13.25463 2898 ft 193 kts 68°
2026-05-05 19:08 52.29895 13.27421 2672 ft 182 kts 68°
2026-05-05 19:08 52.30355 13.29335 2436 ft 175 kts 69°
2026-05-05 19:08 52.30786 13.31130 2219 ft 162 kts 69°
2026-05-05 19:09 52.31176 13.32753 2007 ft 148 kts 68°
2026-05-05 19:09 52.31539 13.34269 1806 ft 140 kts 68°
2026-05-05 19:09 52.31774 13.35250 1699 ft 137 kts 68°
2026-05-05 19:09 52.32229 13.37154 1442 ft 135 kts 68°
2026-05-05 19:10 52.32569 13.38582 1250 ft 135 kts 67°
2026-05-05 19:10 52.32900 13.39991 1087 ft 132 kts 68°
2026-05-05 19:10 52.33231 13.41399 925 ft 132 kts 69°
2026-05-05 19:10 52.33457 13.42356 779 ft 134 kts 68°
2026-05-05 19:11 52.33801 13.43759 636 ft 132 kts 66°
2026-05-05 19:11 52.34136 13.45150 423 ft 129 kts 67°
2026-05-05 19:11 52.34466 13.46528 254 ft 131 kts 66°
2026-05-05 19:11 52.34794 13.47892 154 ft 118 kts 69°
2026-05-05 19:12 52.35020 13.48856 154 ft 57 kts 70°
2026-05-05 19:12 52.35170 13.49281 154 ft 30 kts 42°
2026-05-05 19:12 52.35258 13.49397 154 ft 9 kts 39°
2026-05-05 19:12 52.35304 13.49458 154 ft 8 kts 38°
2026-05-05 19:13 52.35352 13.49521 154 ft 10 kts 39°
2026-05-05 19:13 52.35412 13.49601 154 ft 12 kts 39°
2026-05-05 19:13 52.35464 13.49728 154 ft 15 kts 69°
2026-05-05 19:13 52.35499 13.49889 154 ft 14 kts 70°
2026-05-05 19:14 52.35522 13.49986 155 ft 6 kts 68°
2026-05-05 19:14 52.35546 13.50070 154 ft 12 kts 66°
2026-05-05 19:14 52.35596 13.50181 155 ft 13 kts 17°
2026-05-05 19:14 52.35628 13.50177 155 ft 6 kts 356°
2026-05-05 19:15 52.35678 13.50236 155 ft 14 kts 61°
2026-05-05 19:15 52.35721 13.50406 155 ft 15 kts 69°
2026-05-05 19:15 52.35755 13.50548 155 ft 5 kts 68°
2026-05-05 19:15 52.35758 13.50560 155 ft 2 kts 68°
2026-05-05 19:16 52.35767 13.50601 155 ft 5 kts 68°
2026-05-05 19:16 52.35807 13.50640 155 ft 10 kts
2026-05-05 19:16 52.35895 13.50649 155 ft 16 kts
2026-05-05 19:16 52.36024 13.50587 155 ft 21 kts 339°
2026-05-05 19:17 52.36158 13.50500 155 ft 18 kts 340°
2026-05-05 19:17 52.36280 13.50424 155 ft 19 kts 339°
2026-05-05 19:17 52.36406 13.50343 155 ft 20 kts 339°
2026-05-05 19:17 52.36508 13.50279 155 ft 11 kts 338°
2026-05-05 19:18 52.36533 13.50288 155 ft 4 kts 52°
2026-05-05 19:18 52.36548 13.50346 155 ft 8 kts 70°
2026-05-05 19:18 52.36569 13.50436 155 ft 8 kts 69°
2026-05-05 19:18 52.36575 13.50460 155 ft 0 kts 69°
2026-05-05 19:22 52.36575 13.50461 155 ft 0 kts 69°